Location: Newark
(45.9456°N, 15.4064°E)
Time: 16:02:56
(UTC+00:00)

Vanguard 3 - Pass Details

Date: 28 January 2020
Orbit: 508 x 3263 km, 33.3° (Epoch: 17 February)

Event Time Altitude Azimuth Distance (km) Brightness Sun altitude
Rises 21:04:02 0° 277° (W) 7,133 12.5 -51.8°
Reaches altitude 10° 21:10:00 10° 268° (W) 5,889 11.8 -52.6°
Enters shadow 21:20:46 28° 233° (SW) 3,923 10.5 -54.0°
Maximum altitude 21:23:24 29° 218° (SW) 3,641 - -54.4°
Drops below altitude 10° 21:32:45 10° 164° (SSE) 4,036 - -55.5°
Sets 21:35:58 0° 152° (SSE) 4,651 - -55.9°
